Cumshewa Island, British Columbia

6:41 AM PDT on July 21, 2017 (GMT -0700)
Cumshewa Island

Weather History for CWZL - February, 2013

Change the Weather History Date:

Monday, February 18, 2013

  Actual Average (CYZP) Record (CYZP)
Temperature  
Mean Temperature 41 °F -  
Max Temperature 44 °F 42 °F 50 °F (2015)
Min Temperature 38 °F 34 °F 26 °F (2011)
Degree Days  
Heating Degree Days 24    
Moisture  
Dew Point 38 °F    
Average Humidity 86    
Maximum Humidity 93    
Minimum Humidity 77    
Precipitation  
Precipitation 0.00 in - - ()
Sea Level Pressure  
Sea Level Pressure 29.74 in    
Wind  
Wind Speed 10 mph ()    
Max Wind Speed 21 mph    
Max Gust Speed -    
Averages and records for this station are not official NWS values.
T = Trace of Precipitation, MM = Missing Value Source: Averaged Metar Reports

Daily Weather History Graph

Daily Weather History Graph

Search for Another Location

Airport or City:

Trip Planner

Search our weather history database for the weather conditions in past years. The results will help you decide how hot, cold, wet, or windy it might be!

Date:

Astronomy

Feb. 18, 2013 Rise Set
Actual Time 7:56 AM PST 6:04 PM PST
Civil Twilight 7:21 AM PST 6:40 PM PST
Nautical Twilight 6:41 AM PST 7:20 PM PST
Astronomical Twilight 6:01 AM PST 8:00 PM PST
Moon 11:30 AM PST (2/18) 3:06 AM PST (2/18)
Length of Visible Light 11h 19m
Length of Day
10h 08m
First Quarter, 59% of the Moon is Illuminated
Feb 18
First Quarter
Feb 25
Full
Mar 4
Last Quarter
Mar 11
New
Mar 19
First Quarter

Hourly Weather History & Observations

Time (PST) Temp. Windchill Dew Point Humidity Pressure Visibility Wind Dir Wind Speed Gust Speed Precip Events Conditions
12:00 AM 41.5 °F 32.4 °F 37.8 °F 86% 29.83 in - SSE 20.7 mph - N/A   Unknown
1:00 AM 41.2 °F 32.4 °F 37.0 °F 85% 29.82 in - South 18.4 mph - N/A   Unknown
2:00 AM 41.5 °F 32.9 °F 38.1 °F 88% 29.80 in - South 18.4 mph - N/A   Unknown
3:00 AM 41.9 °F 33.7 °F 38.5 °F 88% 29.78 in - South 17.3 mph - N/A   Unknown
4:00 AM 42 °F - 38 °F 83% 29.76 in - South 13.8 mph - -  
4:00 AM 41.5 °F 34.2 °F 38.5 °F 89% 29.76 in - South 13.8 mph - N/A   Unknown
5:00 AM 41.4 °F 34.0 °F 38.1 °F 88% 29.74 in - South 13.8 mph - N/A   Unknown
6:00 AM 41.0 °F 37.1 °F 37.4 °F 87% 29.73 in - South 5.8 mph - N/A   Unknown
7:00 AM 39.6 °F 37.4 °F 37.2 °F 91% 29.71 in - West 3.5 mph - N/A   Unknown
8:00 AM 38.7 °F 35.2 °F 36.9 °F 93% 29.70 in - West 4.6 mph - N/A   Unknown
9:00 AM 40.1 °F 36.9 °F 37.4 °F 90% 29.69 in - West 4.6 mph - N/A   Unknown
10:00 AM 42 °F - 39 °F 83% 29.69 in - West 6.9 mph - -  
10:00 AM 41.7 °F 37.3 °F 38.7 °F 89% 29.69 in - West 6.9 mph - N/A   Unknown
11:00 AM 44.1 °F - 38.8 °F 82% 29.68 in - SW 2.3 mph - N/A   Unknown
12:00 PM 43.5 °F 41.9 °F 37.9 °F 81% 29.68 in - SSE 3.5 mph - N/A   Unknown
1:00 PM 43.3 °F 37.7 °F 37.2 °F 79% 29.68 in - SSE 10.4 mph - N/A   Unknown
2:00 PM 43.7 °F 37.7 °F 37.4 °F 78% 29.68 in - SSE 11.5 mph - N/A   Unknown
4:00 PM 43 °F - 38 °F 77% 29.68 in - SSE 11.5 mph - -  
5:00 PM 43.5 °F 39.4 °F 38.5 °F 82% 29.70 in - South 6.9 mph - N/A   Unknown
6:00 PM 43.3 °F 39.2 °F 38.3 °F 82% 29.72 in - South 6.9 mph - N/A   Unknown
7:00 PM 42.1 °F - 38.5 °F 87% 29.73 in - West 1.2 mph - N/A   Unknown
8:00 PM 40.8 °F 37.8 °F 38.1 °F 90% 29.75 in - West 4.6 mph - N/A   Unknown
9:00 PM 40.6 °F 38.6 °F 38.1 °F 91% 29.77 in - West 3.5 mph - N/A   Unknown
10:00 PM 40 °F - 38 °F 89% 29.78 in - West 3.5 mph - -  
10:00 PM 39.9 °F 37.8 °F 37.9 °F 93% 29.78 in - West 3.5 mph - N/A   Unknown
11:00 PM 39.9 °F 37.8 °F 38.1 °F 93% 29.81 in - West 3.5 mph - N/A   Unknown